Wind_Speed
14 15 17 12 14 17 20 21 21 24 25 29 28 30 27 24 27 27 30 29 33 36 37 42 44 43 40 39 38 38 38 38 37 33 30 28 27 25 22 21 20 18 17 17
17 22 15 17 17 18 18 21 23 25 25 26 27 30 31 28 31 30 28 27 31 31 37 38 44 47 49 46 43 41 40 39 36 33 31 30 28 26 23 21 20 18 17 17
16 14 10 11 11 12 16 19 19 20 23 30 28 30 26 26 25 22 24 23 27 29 32 38 42 46 46 48 46 44 41 40 36 34 32 31 28 25 23 21 20 18 18 18
11 9 16 20 21 20 21 21 16 16 12 8 9 10 18 27 28 21 18 19 20 24 27 32 40 44 44 45 44 43 41 39 36 34 33 30 27 25 25 23 20 19 19 19
10 12 11 14 14 11 11 11 12 15 17 17 16 10 11 17 27 24 14 15 23 21 25 28 34 39 39 43 43 42 41 38 35 34 31 30 28 26 24 22 20 20 20 20
15 17 20 18 15 13 10 8 10 12 11 7 16 15 12 16 18 14 18 18 16 19 23 23 28 34 38 39 38 40 40 38 35 33 31 30 28 26 24 23 22 21 21 21
13 15 20 18 17 18 18 13 4 4 4 7 8 8 16 16 9 13 17 15 14 16 18 20 25 31 34 37 35 37 39 38 35 33 32 30 29 27 26 25 23 22 21 20
6 4 4 4 9 7 5 14 6 5 3 4 10 7 3 3 18 22 21 20 17 11 17 20 23 29 33 34 36 36 38 37 36 33 32 31 30 28 28 26 24 22 21 19
4 6 8 7 6 5 5 13 15 11 15 5 10 9 17 13 9 1 3 8 8 8 11 15 24 27 32 36 36 34 36 36 35 32 32 32 31 29 28 27 25 22 21 19
6 9 12 10 12 15 16 8 4 8 4 6 5 6 9 3 5 11 6 14 11 12 9 10 14 26 26 34 38 39 38 36 34 33 33 32 31 30 30 28 26 23 21 19
9 9 10 12 6 7 7 14 12 9 9 5 5 6 10 8 20 16 6 3 11 21 16 11 9 14 27 26 36 38 42 41 39 35 34 34 32 31 30 29 27 24 21 20
16 11 13 15 14 17 19 18 18 16 9 10 12 20 18 22 24 6 5 11 28 15 17 16 11 10 16 24 28 37 40 41 39 37 36 35 33 33 31 30 28 24 23 22
15 7 11 13 12 15 14 13 15 17 17 25 16 11 8 9 15 16 23 36 27 16 15 17 16 14 14 19 25 32 39 41 41 40 38 36 34 32 32 30 28 25 24 23
21 20 19 18 16 18 25 20 19 14 11 17 35 32 32 35 38 38 40 30 21 18 16 14 15 16 14 17 24 30 37 43 42 40 37 34 32 31 32 30 28 26 26 25
8 15 17 26 28 27 31 38 39 29 33 27 52 39 38 36 38 39 37 34 30 24 19 19 16 19 18 17 21 27 36 41 40 39 36 33 33 33 32 30 27 27 27 27
22 24 25 31 28 27 29 26 26 40 40 49 44 57 35 42 47 49 48 47 44 37 29 22 21 21 23 19 20 26 35 40 40 39 36 34 33 33 30 28 27 27 28 28
22 20 16 26 18 20 22 26 25 22 25 31 40 43 40 44 47 52 51 45 41 33 29 26 25 25 26 25 22 24 32 39 40 38 36 34 33 32 29 28 27 26 27 28
28 28 21 24 18 13 24 19 21 24 28 28 34 35 37 41 42 45 32 35 33 30 30 27 25 26 28 29 26 27 31 36 37 37 36 36 34 31 29 27 24 25 26 28
34 33 22 16 19 21 29 30 27 30 29 24 30 28 30 35 44 40 31 33 36 33 28 27 25 24 26 33 33 33 34 36 38 37 37 35 33 30 29 25 23 23 23 25
24 24 30 20 10 10 21 21 18 25 32 28 30 32 36 34 34 39 39 40 40 38 31 27 25 23 24 31 34 36 38 38 38 38 35 34 32 30 26 24 24 24 22 25
21 22 28 33 22 17 32 30 21 22 26 19 27 34 35 34 32 30 27 40 43 37 30 28 26 24 24 28 38 40 42 41 36 33 32 32 30 27 25 23 20 19 22 28
29 19 20 20 13 14 35 31 27 25 25 28 27 29 27 32 34 29 30 36 37 35 29 27 27 26 23 25 36 39 42 41 38 36 35 33 31 28 23 22 24 22 25 28
26 36 29 27 26 28 17 18 17 29 29 29 28 25 27 31 31 32 33 34 34 32 30 26 26 24 22 25 33 42 43 46 41 43 41 38 34 29 27 29 27 28 33 27
30 29 27 28 33 37 36 33 30 25 26 25 28 29 28 30 29 32 35 32 28 25 23 18 18 18 20 24 30 39 42 46 50 46 39 35 35 35 33 34 33 36 37 30
32 26 33 31 35 35 35 31 26 28 27 30 29 28 29 30 31 32 34 28 25 21 14 15 16 14 16 21 27 36 42 43 52 51 48 46 45 40 37 38 37 32 28 30
41 43 33 36 30 30 29 23 24 28 29 32 30 30 30 30 29 31 31 27 27 25 17 17 18 15 15 16 23 32 38 39 45 51 53 53 52 45 41 40 36 32 28 32
Wind_Direction
270 261 264 288 270 263 262 265 268 273 276 277 275 274 269 268 270 267 260 253 244 240 234 230 228 229 231 232 232 233 234 237 240 244 249 254 258 257 253 242 246 251 257 264
262 264 273 259 259 257 259 264 268 278 278 272 282 279 278 267 272 271 271 266 257 248 239 234 230 229 231 234 237 236 235 235 238 242 246 251 256 254 246 240 243 248 257 267
259 262 260 256 263 257 266 268 279 279 289 282 284 287 286 279 280 282 276 277 266 256 249 239 234 231 231 233 235 234 234 235 237 240 245 249 252 249 239 240 242 248 256 266
280 274 265 263 266 270 273 278 273 273 281 273 279 292 273 284 287 287 284 280 282 266 255 247 236 231 232 231 232 233 232 233 235 238 242 247 247 237 234 236 240 247 258 270
270 275 271 270 273 272 273 277 269 269 274 284 268 257 274 293 300 308 298 281 271 259 251 243 238 233 237 228 229 231 228 230 231 234 238 243 240 235 237 239 241 249 260 271
281 268 266 266 272 266 258 272 289 278 264 256 257 239 274 276 298 314 294 295 282 252 251 246 229 226 227 225 229 226 226 228 229 231 236 239 235 235 237 239 242 250 261 273
277 274 272 265 266 261 255 264 281 239 206 252 259 248 255 281 305 303 309 305 308 264 250 243 231 229 228 226 224 224 220 222 225 228 233 234 232 233 235 236 241 249 261 273
287 276 239 260 256 226 257 223 231 270 264 317 300 245 237 164 303 293 290 301 311 294 255 247 233 228 227 226 226 224 218 219 222 226 230 230 230 232 233 234 239 250 263 266
263 254 239 239 263 241 237 223 239 263 279 274 247 270 283 259 282 70 312 353 317 307 280 264 236 231 227 225 223 222 222 222 224 228 230 229 230 232 232 234 239 249 259 259
259 284 265 263 261 255 236 242 216 214 257 254 236 258 241 254 61 355 285 351 358 357 334 307 265 234 233 228 225 224 225 227 229 229 229 228 230 231 231 233 238 248 251 253
263 253 262 258 253 250 250 244 239 241 235 261 288 251 222 285 326 341 317 325 357 343 342 335 310 251 234 235 229 225 224 224 225 226 228 228 230 230 228 230 237 244 244 245
286 286 272 252 244 261 262 265 255 244 239 237 258 261 254 278 293 278 293 315 329 333 334 328 322 272 241 236 233 227 223 221 222 224 224 226 228 227 224 228 237 239 237 237
293 278 307 285 259 249 236 231 228 243 269 253 254 251 240 270 264 259 289 305 312 312 319 325 317 313 267 240 230 225 222 217 217 220 221 225 226 223 222 229 235 236 234 234
283 270 256 261 283 289 291 286 282 296 281 287 258 270 272 266 270 270 279 291 288 289 300 307 304 295 289 255 233 226 218 211 211 214 219 222 223 217 223 229 234 235 233 232
257 273 277 278 282 284 281 280 280 276 272 264 268 278 274 282 282 274 278 289 286 282 293 295 292 281 283 268 240 226 216 208 208 212 218 219 216 217 224 230 235 235 234 233
271 272 280 280 284 283 280 273 272 274 278 276 279 282 290 282 286 284 283 287 290 295 293 283 264 269 269 270 252 227 218 212 211 214 215 216 216 220 224 230 234 235 234 235
262 263 270 276 284 286 279 272 269 273 269 276 281 284 286 281 279 278 280 291 291 287 280 282 282 261 263 263 254 233 219 218 216 215 214 215 217 219 224 231 235 236 236 237
265 267 256 270 282 259 274 274 259 276 280 282 276 280 278 281 276 275 280 280 287 282 275 280 288 269 259 258 255 236 218 217 219 218 216 214 215 219 225 230 235 237 239 241
267 261 250 246 253 270 276 271 269 275 275 289 289 284 288 284 277 272 268 275 276 276 273 276 283 270 256 244 249 236 224 217 216 216 216 213 215 219 225 230 235 240 243 246
263 248 233 239 241 256 268 273 266 273 278 280 276 284 292 293 291 275 264 265 267 266 274 276 277 266 262 245 233 239 227 221 217 214 211 212 217 221 224 227 236 243 249 252
249 245 223 231 239 256 273 273 272 254 280 281 279 299 301 297 291 290 271 251 260 266 264 265 270 264 266 249 229 226 232 222 219 215 211 213 218 220 221 224 237 252 265 261
243 243 235 231 239 258 283 260 239 258 285 286 296 298 299 299 288 281 276 267 264 266 268 271 266 261 263 255 231 225 228 222 215 214 212 214 214 218 220 234 244 254 268 271
242 249 246 241 246 259 270 272 272 281 287 284 287 298 305 302 294 272 276 267 267 273 273 267 265 265 261 255 236 226 223 221 217 216 217 216 213 222 230 246 245 262 272 264
263 265 249 259 264 261 259 270 282 290 284 282 282 289 301 302 298 272 272 273 267 260 258 259 262 264 258 248 240 230 225 214 222 215 219 221 227 230 238 241 243 256 261 262
269 266 267 262 276 273 271 282 289 284 277 274 276 277 287 292 296 280 271 271 256 240 244 257 259 267 268 250 241 231 227 224 224 225 225 229 234 236 243 249 248 246 241 252
269 271 253 260 291 278 286 290 284 283 283 280 272 271 280 288 293 279 271 266 247 242 229 245 262 262 265 256 242 228 224 224 222 222 224 230 237 242 243 243 241 237 236 245
Height
3056 3057 3055 3055 3054 3054 3054 3053 3052 3051 3050 3047 3044 3042 3042 3043 3042 3042 3043 3043 3044 3045 3052 3054 3059 3063 3066 3068 3071 3074 3077 3080 3082 3085 3087 3089 3090 3091 3092 3094 3095 3096 3097 3098
3054 3050 3053 3051 3050 3049 3049 3048 3047 3046 3045 3041 3038 3034 3035 3036 3035 3036 3037 3036 3037 3039 3042 3044 3047 3051 3055 3060 3064 3066 3069 3072 3076 3079 3081 3083 3084 3085 3087 3089 3090 3092 3093 3093
3049 3049 3048 3048 3047 3046 3045 3044 3044 3044 3041 3034 3033 3025 3028 3029 3028 3030 3030 3030 3030 3031 3032 3035 3037 3041 3046 3049 3054 3058 3061 3066 3070 3073 3075 3077 3079 3080 3082 3084 3085 3086 3087 3088
3046 3044 3043 3043 3043 3044 3041 3041 3041 3040 3038 3035 3032 3023 3022 3024 3022 3024 3024 3023 3023 3024 3024 3026 3028 3031 3035 3041 3047 3050 3054 3059 3063 3066 3068 3071 3072 3074 3076 3078 3080 3081 3082 3082
3045 3042 3042 3041 3041 3040 3039 3038 3037 3037 3035 3032 3029 3028 3016 3017 3017 3018 3018 3016 3015 3015 3014 3016 3018 3023 3028 3032 3037 3042 3047 3051 3055 3059 3062 3064 3066 3068 3070 3073 3074 3076 3077 3077
3039 3039 3038 3037 3037 3037 3037 3036 3034 3033 3032 3027 3021 3022 3011 3014 3013 3013 3011 3011 3009 3008 3008 3009 3011 3014 3018 3023 3029 3034 3039 3043 3047 3051 3055 3057 3059 3062 3065 3068 3069 3070 3071 3072
3034 3034 3033 3033 3033 3033 3035 3036 3034 3030 3028 3017 3015 3015 3007 3009 3010 3008 3005 3004 3003 3003 3002 3003 3005 3009 3012 3016 3021 3025 3030 3035 3040 3044 3047 3050 3054 3056 3059 3062 3064 3065 3066 3066
3031 3030 3028 3029 3029 3030 3030 3033 3032 3024 3018 3014 3013 3007 3003 3004 3004 3004 3002 3001 3000 2998 2997 2997 2999 3001 3004 3009 3014 3018 3023 3028 3033 3037 3041 3044 3047 3050 3053 3056 3058 3059 3061 3061
3028 3026 3025 3026 3026 3028 3026 3027 3029 3027 3022 3019 3008 3002 3001 3000 3000 2999 3000 2998 2996 2994 2992 2992 2992 2994 2997 3001 3006 3012 3017 3022 3026 3031 3034 3037 3041 3044 3047 3050 3052 3054 3056 3056
3025 3024 3022 3022 3023 3023 3024 3025 3025 3024 3020 3009 3000 3000 2998 2997 2997 2997 2996 2994 2993 2991 2989 2988 2987 2989 2991 2994 2998 3003 3008 3015 3021 3024 3028 3032 3035 3038 3041 3044 3046 3048 3049 3051
3025 3023 3020 3019 3020 3020 3020 3019 3020 3019 3015 3007 3000 2993 2993 2993 2992 2991 2990 2989 2988 2988 2986 2984 2983 2983 2985 2987 2990 2994 2999 3006 3011 3016 3021 3024 3028 3031 3035 3038 3041 3043 3044 3046
3022 3020 3015 3015 3015 3015 3015 3015 3015 3013 3007 3005 3002 2989 2993 2990 2988 2989 2986 2985 2986 2986 2984 2982 2980 2978 2978 2980 2983 2987 2991 2997 3004 3009 3013 3017 3021 3025 3028 3032 3034 3036 3038 3041
3018 3017 3014 3008 3010 3007 3007 3007 3007 3005 3004 2996 2997 2986 2987 2984 2982 2982 2981 2982 2983 2982 2981 2979 2977 2975 2974 2973 2974 2978 2983 2989 2995 3000 3005 3010 3014 3018 3023 3025 3028 3030 3032 3035
3014 3012 3013 3010 3008 3008 3004 3003 3004 3006 3002 2991 2980 2983 2984 2981 2977 2975 2976 2977 2976 2975 2974 2973 2972 2970 2968 2968 2969 2971 2974 2979 2986 2993 2998 3004 3009 3013 3017 3019 3021 3024 3026 3029
3008 3006 3006 3003 3002 3001 2999 2995 2994 2995 2994 2992 2965 2975 2977 2979 2977 2969 2965 2967 2967 2968 2970 2968 2967 2965 2964 2964 2964 2966 2969 2974 2981 2987 2992 2998 3002 3006 3009 3012 3015 3018 3020 3023
3002 2998 2998 2992 2994 2993 2989 2988 2987 2984 2983 2975 2972 2959 2975 2967 2965 2964 2962 2960 2960 2962 2962 2961 2961 2960 2958 2958 2959 2961 2965 2970 2975 2980 2986 2991 2996 3000 3003 3006 3009 3011 3014 3016
2996 2994 2992 2985 2987 2985 2980 2979 2978 2976 2974 2970 2962 2959 2958 2955 2956 2956 2955 2957 2953 2953 2952 2953 2954 2953 2953 2953 2954 2956 2960 2965 2968 2974 2980 2985 2990 2993 2997 3000 3002 3005 3008 3010
2986 2986 2987 2981 2982 2977 2970 2971 2970 2967 2965 2962 2956 2951 2949 2945 2944 2946 2953 2946 2944 2944 2944 2945 2945 2945 2946 2947 2949 2951 2953 2958 2964 2969 2974 2978 2982 2987 2991 2994 2996 2998 3001 3003
2977 2978 2978 2976 2972 2967 2964 2964 2965 2959 2955 2953 2950 2945 2941 2937 2935 2939 2943 2938 2935 2935 2936 2936 2936 2936 2937 2938 2942 2944 2947 2951 2955 2960 2966 2971 2976 2980 2984 2988 2990 2993 2995 2997
2968 2967 2970 2968 2964 2958 2956 2956 2956 2953 2941 2950 2944 2939 2934 2931 2927 2928 2933 2929 2927 2927 2928 2927 2927 2927 2927 2929 2931 2936 2940 2944 2948 2953 2959 2965 2969 2973 2978 2981 2983 2986 2988 2990
2959 2957 2957 2956 2954 2948 2946 2947 2948 2946 2944 2939 2937 2932 2928 2925 2923 2920 2920 2917 2917 2916 2918 2918 2918 2918 2919 2918 2921 2927 2932 2936 2945 2949 2954 2958 2963 2968 2971 2973 2976 2979 2981 2982
2948 2949 2948 2948 2946 2941 2936 2938 2939 2936 2933 2930 2928 2925 2920 2917 2915 2915 2911 2907 2905 2905 2908 2908 2909 2910 2910 2910 2913 2918 2924 2932 2936 2941 2947 2951 2955 2960 2963 2967 2969 2971 2974 2975
2941 2937 2937 2938 2932 2929 2929 2930 2930 2929 2925 2922 2919 2917 2912 2909 2908 2907 2903 2899 2897 2897 2899 2899 2900 2901 2901 2902 2904 2909 2915 2922 2927 2932 2938 2942 2947 2951 2955 2958 2961 2964 2966 2966
2928 2927 2926 2927 2920 2919 2923 2923 2922 2920 2916 2914 2911 2907 2905 2900 2899 2897 2895 2891 2890 2891 2891 2891 2892 2892 2892 2893 2895 2900 2906 2912 2917 2925 2929 2934 2939 2942 2946 2949 2950 2951 2956 2958
2919 2919 2916 2915 2911 2912 2914 2914 2912 2910 2907 2904 2902 2899 2896 2893 2892 2888 2885 2884 2884 2884 2883 2884 2885 2885 2885 2885 2888 2892 2898 2903 2908 2914 2920 2925 2930 2933 2937 2939 2943 2943 2946 2949
2906 2905 2908 2903 2903 2904 2904 2904 2902 2898 2897 2895 2892 2890 2888 2885 2883 2880 2877 2875 2876 2877 2876 2878 2879 2878 2879 2880 2882 2885 2890 2895 2900 2905 2910 2916 2920 2924 2927 2929 2932 2934 2935 2938